Flag for U.S.A. Weather past 2 weeks in Babylon, New York, U.S.A.

Now
38 °F

Mostly cloudy.


Feels Like: 30 °F
Forecast: 37 / 51 °F
Wind: 13 mph from Southwest

Location: Republic Airport

Current Time: Mar 30, 2015 at 7:09:00 AM

Latest Report: Mar 30, 2015 at 5:53 AM


Visibility: 10 mi

Pressure: 29.99 "Hg

Humidity: 68%

Dew point: 28 °F

Location of BabylonLocation

Historic Weather in Babylon — Graph

°F

Babylon temperature yesterday

Maximum temperature yesterday: 43 °F (at 4:53 PM)
Minimum temperature yesterday: 25 °F (at 6:53 AM)
Average temperature yesterday: 33 °F

Past Weeks' High & Low Weather Summary

 TemperatureHumidityPressure
High57 °F (Mar 17, 12:53 PM)100% (Mar 26, 8:53 PM)30.42 "Hg (Mar 26, 8:53 PM)
Low23 °F (Mar 23, 6:53 AM)18% (Mar 19, 3:53 PM)29.53 "Hg (Mar 17, 11:53 AM)
Average37 °F59%30.04 "Hg
* Reported Mar 15 5:53 AM — Mar 30 5:53 AM, Babylon, Weather by CustomWeather, © 2015

Note: Actual official high and low records may vary slightly from our data, if they occured in-between our weather recording intervals... More about our weather records

Advertising

Babylon weather history for previous 24 hours

 ConditionsComfort  
Time TempWeatherWind HumidityBarometerVisibility
5:53 AM
Mon, Mar 30
38 °FMostly cloudy.13 mph68%29.99 "Hg10 mi
4:53 AM37 °FPassing clouds.14 mph67%30.00 "Hg10 mi
3:53 AM37 °FClear.13 mph52%30.04 "Hg10 mi
2:53 AM36 °FClear.10 mph52%30.06 "Hg10 mi
1:53 AM36 °FClear.6 mph50%30.10 "Hg10 mi
12:53 AM36 °FClear.10 mph62%30.12 "Hg10 mi
11:53 PM
Sun, Mar 29
36 °FClear.9 mph70%30.12 "Hg10 mi
10:53 PM35 °FClear.10 mph72%30.15 "Hg10 mi
9:53 PM35 °FClear.9 mph67%30.16 "Hg10 mi
8:53 PM35 °FClear.10 mph59%30.16 "Hg10 mi
7:53 PM37 °FSunny.13 mph52%30.17 "Hg10 mi
6:53 PM40 °FSunny.7 mph35%30.16 "Hg10 mi
5:53 PM42 °FSunny.8 mph28%30.17 "Hg10 mi
4:53 PM43 °FSunny.7 mph19%30.17 "Hg10 mi
3:53 PM42 °FSunny.N/A21%30.19 "Hg10 mi
2:53 PM42 °FSunny.8 mph22%30.21 "Hg10 mi
1:53 PM40 °FSunny.10 mph23%30.23 "Hg10 mi
12:53 PM38 °FSunny.8 mph26%30.25 "Hg10 mi
11:53 AM36 °FSunny.10 mph31%30.26 "Hg10 mi
10:53 AM33 °FSunny.10 mph38%30.27 "Hg10 mi
9:53 AM30 °FSunny.12 mph40%30.27 "Hg10 mi
8:53 AM28 °FSunny.10 mph41%30.25 "Hg10 mi
7:53 AM26 °FSunny.9 mph44%30.24 "Hg10 mi
Weather by CustomWeather, © 2015

See weather overviewHow to use our weather pages